When you browse on this site, cookies collect data to enhance your experience and personalize the content and advertising you see.
Visit our Privacy Policy to learn more. By continuing to use the site, you agree to this use of cookies and data.
  • In Romania
  • List of Countries
  • For 7 days
  • Water Temperature
  • Weather Map
  • Weather Widgets
  • user-avatar
    Login

    Hourly Weather Ondjiwa

    Today, 29 May, Friday

    Time Temperature Precipitation Wind Pressure Humidity
    00:00 +17°C° 0 mm 2 mps 668 mmHg 38%
    01:00 +17°C° 0 mm 3 mps 668 mmHg 40%
    02:00 +16°C° 0 mm 3 mps 668 mmHg 41%
    03:00 +15°C° 0 mm 2 mps 668 mmHg 42%
    04:00 +15°C° 0 mm 2 mps 667 mmHg 43%
    05:00 +15°C° 0 mm 2 mps 668 mmHg 44%
    06:00 +14°C° 0 mm 2 mps 669 mmHg 46%
    07:00 +14°C° 0 mm 2 mps 669 mmHg 47%
    08:00 +18°C° 0 mm 2 mps 670 mmHg 40%
    09:00 +21°C° 0 mm 2 mps 671 mmHg 33%
    10:00 +25°C° 0 mm 3 mps 672 mmHg 26%
    11:00 +27°C° 0 mm 2 mps 671 mmHg 23%
    12:00 +29°C° 0 mm 2 mps 671 mmHg 20%
    13:00 +31°C° 0 mm 2 mps 670 mmHg 17%
    14:00 +31°C° 0 mm 2 mps 670 mmHg 16%
    15:00 +31°C° 0 mm 1 mps 669 mmHg 16%
    16:00 +31°C° 0 mm 1 mps 669 mmHg 15%
    17:00 +28°C° 0 mm 1 mps 669 mmHg 18%
    18:00 +25°C° 0 mm 1 mps 668 mmHg 22%
    19:00 +22°C° 0 mm 1 mps 668 mmHg 25%
    20:00 +20°C° 0 mm 2 mps 668 mmHg 26%
    21:00 +19°C° 0 mm 2 mps 668 mmHg 27%
    22:00 +18°C° 0 mm 2 mps 668 mmHg 28%
    23:00 +17°C° 0 mm 2 mps 668 mmHg 28%

    Tomorrow, 30 May, Saturday

    Time Temperature Precipitation Wind Pressure Humidity
    00:00 +17°C° 0 mm 2 mps 668 mmHg 29%
    01:00 +16°C° 0 mm 2 mps 668 mmHg 29%
    02:00 +15°C° 0 mm 2 mps 668 mmHg 29%
    03:00 +15°C° 0 mm 2 mps 667 mmHg 30%
    04:00 +14°C° 0 mm 2 mps 667 mmHg 30%
    05:00 +14°C° 0 mm 2 mps 668 mmHg 31%
    06:00 +13°C° 0 mm 2 mps 668 mmHg 31%
    07:00 +13°C° 0 mm 2 mps 669 mmHg 32%
    08:00 +17°C° 0 mm 3 mps 670 mmHg 26%
    09:00 +21°C° 0 mm 3 mps 671 mmHg 21%
    10:00 +26°C° 0 mm 4 mps 672 mmHg 15%
    11:00 +28°C° 0 mm 4 mps 671 mmHg 14%
    12:00 +30°C° 0 mm 3 mps 671 mmHg 12%
    13:00 +33°C° 0 mm 3 mps 670 mmHg 10%
    14:00 +33°C° 0 mm 3 mps 670 mmHg 10%
    15:00 +31°C° 0 mm 3 mps 670 mmHg 10%
    16:00 +31°C° 0 mm 2 mps 669 mmHg 10%
    17:00 +28°C° 0 mm 2 mps 669 mmHg 13%
    18:00 +25°C° 0 mm 2 mps 669 mmHg 16%
    19:00 +21°C° 0 mm 2 mps 668 mmHg 18%
    20:00 +20°C° 0 mm 2 mps 668 mmHg 20%
    21:00 +19°C° 0 mm 2 mps 668 mmHg 21%
    22:00 +18°C° 0 mm 2 mps 669 mmHg 23%
    23:00 +17°C° 0 mm 3 mps 669 mmHg 24%

    Day after tomorrow, 31 May, Sunday

    Time Temperature Precipitation Wind Pressure Humidity
    00:00 +17°C° 0 mm 3 mps 669 mmHg 26%
    01:00 +16°C° 0 mm 3 mps 669 mmHg 27%
    02:00 +14°C° 0 mm 3 mps 669 mmHg 29%
    03:00 +14°C° 0 mm 3 mps 668 mmHg 30%
    04:00 +13°C° 0 mm 3 mps 668 mmHg 32%
    05:00 +13°C° 0 mm 3 mps 669 mmHg 34%
    06:00 +14°C° 0 mm 2 mps 669 mmHg 37%
    07:00 +14°C° 0 mm 2 mps 670 mmHg 39%
    08:00 +18°C° 0 mm 3 mps 671 mmHg 33%
    09:00 +22°C° 0 mm 3 mps 671 mmHg 28%
    10:00 +27°C° 0 mm 4 mps 672 mmHg 22%
    11:00 +28°C° 0 mm 4 mps 672 mmHg 20%
    12:00 +30°C° 0 mm 4 mps 672 mmHg 19%
    13:00 +33°C° 0 mm 4 mps 671 mmHg 17%
    14:00 +33°C° 0 mm 4 mps 671 mmHg 17%
    15:00 +32°C° 0 mm 4 mps 670 mmHg 17%
    16:00 +31°C° 0 mm 3 mps 670 mmHg 17%
    17:00 +28°C° 0 mm 3 mps 670 mmHg 21%
    18:00 +25°C° 0 mm 2 mps 670 mmHg 25%
    19:00 +21°C° 0 mm 2 mps 669 mmHg 29%
    20:00 +20°C° 0 mm 2 mps 669 mmHg 31%
    21:00 +20°C° 0 mm 2 mps 670 mmHg 33%
    22:00 +19°C° 0 mm 2 mps 670 mmHg 34%
    23:00 +18°C° 0 mm 2 mps 670 mmHg 36%

    1 June, Monday

    Time Temperature Precipitation Wind Pressure Humidity
    00:00 +18°C° 0 mm 3 mps 670 mmHg 38%
    01:00 +17°C° 0 mm 3 mps 670 mmHg 40%
    02:00 +16°C° 0 mm 3 mps 669 mmHg 43%
    03:00 +16°C° 0 mm 3 mps 669 mmHg 45%
    04:00 +14°C° 0 mm 3 mps 669 mmHg 47%
    05:00 +14°C° 0 mm 3 mps 669 mmHg 49%
    06:00 +14°C° 0 mm 3 mps 670 mmHg 50%
    07:00 +14°C° 0 mm 3 mps 670 mmHg 52%
    08:00 +18°C° 0 mm 3 mps 671 mmHg 43%
    09:00 +22°C° 0 mm 4 mps 672 mmHg 35%
    10:00 +27°C° 0 mm 5 mps 672 mmHg 26%
    11:00 +29°C° 0 mm 5 mps 672 mmHg 24%
    12:00 +30°C° 0 mm 4 mps 672 mmHg 21%
    13:00 +33°C° 0 mm 4 mps 671 mmHg 19%
    14:00 +33°C° 0 mm 4 mps 671 mmHg 19%
    15:00 +31°C° 0 mm 3 mps 670 mmHg 20%
    16:00 +31°C° 0 mm 3 mps 670 mmHg 20%
    17:00 +28°C° 0 mm 3 mps 669 mmHg 25%
    18:00 +25°C° 0 mm 2 mps 669 mmHg 30%
    19:00 +23°C° 0 mm 2 mps 669 mmHg 34%
    20:00 +21°C° 0 mm 2 mps 669 mmHg 36%
    21:00 +20°C° 0 mm 2 mps 669 mmHg 39%
    22:00 +19°C° 0 mm 2 mps 669 mmHg 41%
    23:00 +18°C° 0 mm 2 mps 669 mmHg 43%

    2 June, Tuesday

    Time Temperature Precipitation Wind Pressure Humidity
    00:00 +18°C° 0 mm 2 mps 669 mmHg 45%
    01:00 +17°C° 0 mm 2 mps 669 mmHg 47%
    02:00 +17°C° 0 mm 2 mps 669 mmHg 49%
    03:00 +17°C° 0 mm 2 mps 669 mmHg 51%
    04:00 +16°C° 0 mm 2 mps 669 mmHg 54%
    05:00 +16°C° 0 mm 2 mps 669 mmHg 54%
    06:00 +16°C° 0 mm 2 mps 670 mmHg 55%
    07:00 +16°C° 0 mm 2 mps 670 mmHg 56%
    08:00 +20°C° 0 mm 3 mps 671 mmHg 46%
    09:00 +25°C° 0 mm 4 mps 671 mmHg 37%
    10:00 +29°C° 0 mm 5 mps 672 mmHg 27%
    11:00 +30°C° 0 mm 4 mps 672 mmHg 24%
    12:00 +32°C° 0 mm 4 mps 671 mmHg 22%
    13:00 +33°C° 0 mm 3 mps 670 mmHg 19%
    14:00 +31°C° 0 mm 3 mps 670 mmHg 19%
    15:00 +31°C° 0 mm 2 mps 669 mmHg 19%
    16:00 +31°C° 0 mm 2 mps 669 mmHg 19%
    17:00 +29°C° 0 mm 2 mps 669 mmHg 22%
    18:00 +26°C° 0 mm 2 mps 668 mmHg 26%
    19:00 +23°C° 0 mm 2 mps 668 mmHg 30%
    20:00 +21°C° 0 mm 2 mps 668 mmHg 32%
    21:00 +20°C° 0 mm 2 mps 668 mmHg 34%
    22:00 +19°C° 0 mm 1 mps 668 mmHg 36%
    23:00 +18°C° 0 mm 2 mps 668 mmHg 37%

    3 June, Wednesday

    Time Temperature Precipitation Wind Pressure Humidity
    00:00 +17°C° 0 mm 2 mps 668 mmHg 38%
    01:00 +17°C° 0 mm 2 mps 667 mmHg 38%
    02:00 +16°C° 0 mm 2 mps 667 mmHg 41%
    03:00 +16°C° 0 mm 2 mps 667 mmHg 43%
    04:00 +15°C° 0 mm 2 mps 667 mmHg 45%
    05:00 +15°C° 0 mm 1 mps 667 mmHg 46%
    06:00 +15°C° 0 mm 1 mps 668 mmHg 47%
    07:00 +15°C° 0 mm 1 mps 668 mmHg 48%
    08:00 +18°C° 0 mm 2 mps 669 mmHg 41%
    09:00 +22°C° 0 mm 3 mps 670 mmHg 33%
    10:00 +27°C° 0 mm 4 mps 670 mmHg 25%
    11:00 +28°C° 0 mm 3 mps 670 mmHg 23%
    12:00 +30°C° 0 mm 3 mps 670 mmHg 20%
    13:00 +31°C° 0 mm 2 mps 669 mmHg 18%
    14:00 +31°C° 0 mm 2 mps 669 mmHg 17%
    15:00 +31°C° 0 mm 1 mps 669 mmHg 17%
    16:00 +31°C° 0 mm 1 mps 668 mmHg 17%
    17:00 +28°C° 0 mm 1 mps 668 mmHg 21%
    18:00 +25°C° 0 mm 1 mps 668 mmHg 24%
    19:00 +22°C° 0 mm 1 mps 668 mmHg 28%
    20:00 +22°C° 0 mm 1 mps 668 mmHg 29%
    21:00 +20°C° 0 mm 2 mps 668 mmHg 30%
    22:00 +19°C° 0 mm 2 mps 668 mmHg 31%
    23:00 +19°C° 0 mm 2 mps 668 mmHg 33%
    Show more